{"data":{"norad_id":81535,"intl_designator":"","name":"UNKNOWN","alt_names":[],"object_type":"UNKNOWN","status":"UNKNOWN","operator":null,"country":null,"launch_date":null,"launch_site_code":null,"launch_vehicle":null,"mission":null,"orbit_class":"UNKNOWN","rcs_meters":null,"size_class":null,"mass_kg":null,"dimensions":null,"purposes":[],"wikipedia_slug":null,"has_3d_model":false,"image_url":null,"decayed_at":null,"tle_current":{"epoch":"2026-05-23T10:49:14.990016Z","epoch_age_seconds":219614,"freshness":"STALE","line1":"1 81535U          26143.45086794  .00000475  00000+0  20906-3 0  9996","line2":"2 81535  98.1845 217.3387 0234808  40.8105 321.0394 14.13810985410246","mean_motion":14.13810985,"eccentricity":0.0234808,"inclination_deg":98.1845,"raan_deg":217.3387,"arg_perigee_deg":40.8105,"mean_anomaly_deg":321.0394,"bstar":0.00020906,"rev_number":41024,"period_min":101.85237031526,"perigee_km":676.72289738305,"apogee_km":1015.9968292801,"semimajor_km":7224.4968633316,"source":"CELESTRAK","updated_at":"2026-05-25T13:38:11.075999Z"}}}